AISAT

Satellite information

Favourite Embed

Satellite Type and Status

PAYLOADIN ORBIT

Key statistics

Satellite AISAT at a glance.

Uptime

4087

Days in orbit

Revolutions

≈ 15.0

Per day

Orbit

SSO

Sun Synchronous Orbit

Inclination

98.3

Latest

Satellite identification and parameters

Extended collection of information and parameters for AISAT.

Object identification

Identified? True

Debris? False

Object name: AISAT

International designator: 2014-034B

Object number (NORAD): 40054

Object ID (CCSDS): 40054

Country: GERMANY (GER)

Current information (Y/N): Y

RCS size: MEDIUM

Orbital parameters

Period: 95.924 minutes

Inclination: 98.2568 deg

SMA: 6941.345 km

Apoapsis: 572.718 km

Periapsis: 553.702 km

RAAN: 137.731 deg

Eccentricy: 0.0013698

Argument of periapsis: 90.7445 deg

Mean anomaly: 269.5347 deg

Mean motion: 15.01195703 rev/day

Mean motion (dot): 0.00012702 rev/day2

B* drag term: 0.00099200401 1/REarth

Two-line elements (TLE)

Creation date: Sept. 7, 2025, 3:09 a.m.

Reference frame: TEME

Reference center: EARTH

Epoch: Sept. 6, 2025, 3:50 p.m. UTC

TLE line 0: 0 AISAT

TLE line 1: 1 40054U 14034B 25249.66011260 .00012702 00000-0 99200-3 0 9994

TLE line 2: 2 40054 98.2568 137.7310 0013698 90.7445 269.5347 15.01195703604559

Live tracking on map

Real-time ground track for satellite AISAT.

In-orbit conjunctions

There are no conjunctions computed for AISAT, at the moment. Check back to stay up to date, as we update our databases every day.

Go to all conjunctions

Associated space launch

AISAT was lifted into orbit during the mission ‘PSLV-CA | SPOT-7, CanX-4, CanX-5, AISat, VELOX-I’, on board a PSLV space rocket.

The launch took place on June 30, 2014, 4:22 a.m. from Satish Dhawan Space Centre First Launch Pad.

For more information about the launch, click the button.

Launch to space PSLV-CA | SPOT-7, CanX-4, CanX-5, AISat, VELOX-I
PSLV-CA | SPOT-7, CanX-4, CanX-5, AISat, VELOX-I

Agency: N/A

Status: Launch Successful

Launch date: June 30, 2014, 4:22 a.m. UTC

Rocket: PSLV

Launch pad: Satish Dhawan Space Centre First Launch Pad

Location: Satish Dhawan Space Centre, India

...

Latest news about this satellite

There are no fresh news available about this satellite. Check back as we update our databases every day.


Newsletter sign-up

Weekly statistics, charts and insights to help you stay on top of the space industry.